| time (UTC) | temp F | wind direction | speed MPH | gust MPH | rain 1hr in | rain 24hr in | rain mn in | humidity % | barometer mb |
| 20260507033048 | 58 | 79 | 8.0 | 11.0 | 0.00 | 0.00 | 0.00 | 60 | 1017.7 |
| 20260507031545 | 58 | 87 | 8.0 | 13.0 | 0.00 | 0.00 | 0.00 | 59 | 1017.5 |
| 20260507030044 | 58 | 78 | 9.0 | 11.0 | 0.00 | 0.00 | 0.00 | 58 | 1017.2 |
| 20260507024548 | 59 | 86 | 9.0 | 13.0 | 0.00 | 0.00 | 0.00 | 56 | 1017.1 |
| 20260507023051 | 60 | 78 | 9.0 | 13.0 | 0.00 | 0.00 | 0.00 | 55 | 1017.0 |
| 20260507021550 | 61 | 82 | 8.0 | 13.0 | 0.00 | 0.00 | 0.00 | 54 | 1016.8 |
| 20260507020053 | 62 | 88 | 8.0 | 12.0 | 0.00 | 0.00 | 0.00 | 52 | 1016.5 |
| 20260507014553 | 63 | 82 | 8.0 | 12.0 | 0.00 | 0.00 | 0.00 | 51 | 1016.3 |
| 20260507013051 | 64 | 90 | 9.0 | 13.0 | 0.00 | 0.00 | 0.00 | 49 | 1016.0 |
| 20260507011545 | 65 | 88 | 10.0 | 15.0 | 0.00 | 0.00 | 0.00 | 48 | 1015.7 |
| 20260507010055 | 65 | 82 | 10.0 | 16.0 | 0.00 | 0.00 | 0.00 | 47 | 1015.4 |
| 20260507004554 | 66 | 97 | 12.0 | 16.0 | 0.00 | 0.00 | 0.00 | 46 | 1015.3 |
| 20260507003050 | 67 | 85 | 10.0 | 16.0 | 0.00 | 0.00 | 0.00 | 45 | 1015.2 |
| 20260507001550 | 68 | 84 | 10.0 | 15.0 | 0.00 | 0.00 | 0.00 | 44 | 1015.1 |
| 20260507000047 | 68 | 76 | 12.0 | 16.0 | 0.00 | 0.00 | 0.00 | 43 | 1015.1 |
| 20260506234545 | 68 | 31 | 11.0 | 16.0 | 0.00 | 0.00 | 0.00 | 43 | 1015.0 |
| 20260506233059 | 69 | 59 | 12.0 | 16.0 | 0.00 | 0.00 | 0.00 | 43 | 1015.1 |
| 20260506231541 | 69 | 49 | 11.0 | 17.0 | 0.00 | 0.00 | 0.00 | 42 | 1015.1 |
| 20260506224545 | 70 | 24 | 12.0 | 16.0 | 0.00 | 0.00 | 0.00 | 41 | 1014.8 |
| 20260506223047 | 70 | 348 | 5.0 | 14.0 | 0.00 | 0.00 | 0.00 | 41 | 1014.7 |
| 20260506221548 | 69 | 47 | 9.0 | 15.0 | 0.00 | 0.00 | 0.00 | 42 | 1014.5 |
| 20260506220043 | 69 | 9 | 7.0 | 14.0 | 0.00 | 0.00 | 0.00 | 42 | 1014.5 |
| 20260506214551 | 70 | 73 | 11.0 | 17.0 | 0.00 | 0.00 | 0.00 | 42 | 1014.6 |
| 20260506213046 | 69 | 63 | 12.0 | 17.0 | 0.00 | 0.00 | 0.00 | 43 | 1014.5 |
| 20260506211544 | 69 | 84 | 11.0 | 17.0 | 0.00 | 0.00 | 0.00 | 43 | 1014.7 |
| 20260506210044 | 69 | 42 | 8.0 | 14.0 | 0.00 | 0.00 | 0.00 | 43 | 1014.9 |
| 20260506204548 | 68 | 65 | 8.0 | 15.0 | 0.00 | 0.00 | 0.00 | 43 | 1015.1 |
| 20260506203047 | 68 | 50 | 5.0 | 16.0 | 0.00 | 0.00 | 0.00 | 45 | 1015.3 |
| 20260506201545 | 68 | 24 | 9.0 | 16.0 | 0.00 | 0.00 | 0.00 | 44 | 1015.5 |
| 20260506200047 | 66 | 9 | 12.0 | 17.0 | 0.00 | 0.00 | 0.00 | 46 | 1015.7 |
| 20260506194553 | 66 | 42 | 10.0 | 17.0 | 0.00 | 0.00 | 0.00 | 46 | 1015.7 |
| 20260506193048 | 65 | 69 | 12.0 | 17.0 | 0.00 | 0.00 | 0.00 | 47 | 1015.7 |
| 20260506191548 | 65 | 67 | 5.0 | 18.0 | 0.00 | 0.00 | 0.00 | 48 | 1015.6 |
| 20260506190052 | 64 | 26 | 12.0 | 17.0 | 0.00 | 0.00 | 0.00 | 48 | 1015.9 |
| 20260506184556 | 64 | 61 | 10.0 | 16.0 | 0.00 | 0.00 | 0.00 | 49 | 1016.1 |
| 20260506183050 | 62 | 99 | 8.0 | 17.0 | 0.00 | 0.00 | 0.00 | 51 | 1016.4 |
| 20260506181549 | 62 | 63 | 12.0 | 18.0 | 0.00 | 0.00 | 0.00 | 50 | 1016.4 |
| 20260506180047 | 61 | 71 | 10.0 | 17.0 | 0.00 | 0.00 | 0.00 | 52 | 1016.5 |
| 20260506174547 | 60 | 44 | 12.0 | 17.0 | 0.00 | 0.00 | 0.00 | 54 | 1016.5 |
| 20260506173058 | 60 | 88 | 13.0 | 18.0 | 0.00 | 0.00 | 0.00 | 54 | 1016.8 |
| 20260506171550 | 59 | 67 | 12.0 | 19.0 | 0.00 | 0.00 | 0.00 | 56 | 1016.8 |
| 20260506170041 | 59 | 81 | 15.0 | 19.0 | 0.00 | 0.00 | 0.00 | 56 | 1017.1 |
| 20260506164558 | 58 | 86 | 12.0 | 17.0 | 0.00 | 0.00 | 0.00 | 58 | 1017.2 |
| 20260506163045 | 57 | 69 | 14.0 | 18.0 | 0.00 | 0.00 | 0.00 | 59 | 1017.4 |
| 20260506161544 | 56 | 105 | 14.0 | 18.0 | 0.00 | 0.00 | 0.00 | 60 | 1017.6 |
| 20260506160107 | 55 | 107 | 14.0 | 17.0 | 0.00 | 0.00 | 0.00 | 61 | 1017.6 |
| 20260506154550 | 55 | 63 | 13.0 | 18.0 | 0.00 | 0.00 | 0.00 | 62 | 1017.8 |
| 20260506153047 | 54 | 101 | 15.0 | 19.0 | 0.00 | 0.00 | 0.00 | 62 | 1017.9 |
| 20260506151545 | 55 | 80 | 15.0 | 19.0 | 0.00 | 0.00 | 0.00 | 61 | 1017.8 |
| 20260506150050 | 54 | 91 | 14.0 | 19.0 | 0.00 | 0.00 | 0.00 | 62 | 1017.5 |
| 20260506144544 | 54 | 71 | 13.0 | 18.0 | 0.00 | 0.00 | 0.00 | 63 | 1017.2 |
| 20260506143049 | 54 | 63 | 14.0 | 18.0 | 0.00 | 0.00 | 0.00 | 62 | 1016.7 |
| 20260506141607 | 53 | 74 | 16.0 | 19.0 | 0.00 | 0.00 | 0.00 | 63 | 1016.6 |
| 20260506140045 | 53 | 80 | 15.0 | 19.0 | 0.00 | 0.00 | 0.00 | 62 | 1016.6 |
| 20260506134547 | 53 | 67 | 16.0 | 18.0 | 0.00 | 0.00 | 0.00 | 62 | 1016.5 |
| 20260506133048 | 52 | 59 | 16.0 | 19.0 | 0.00 | 0.00 | 0.00 | 62 | 1016.1 |
| 20260506131547 | 52 | 15 | 14.0 | 19.0 | 0.00 | 0.00 | 0.00 | 63 | 1016.1 |
| 20260506130047 | 51 | 30 | 11.0 | 16.0 | 0.00 | 0.00 | 0.00 | 63 | 1015.9 |
| 20260506124546 | 51 | 39 | 12.0 | 17.0 | 0.00 | 0.00 | 0.00 | 64 | 1015.5 |
| 20260506123046 | 51 | 38 | 11.0 | 17.0 | 0.00 | 0.00 | 0.00 | 63 | 1015.4 |
| 20260506121548 | 51 | 49 | 15.0 | 18.0 | 0.00 | 0.00 | 0.00 | 62 | 1015.4 |
| 20260506120118 | 51 | 42 | 12.0 | 18.0 | 0.00 | 0.00 | 0.00 | 62 | 1015.4 |
| 20260506114547 | 51 | 49 | 10.0 | 18.0 | 0.00 | 0.00 | 0.00 | 62 | 1015.3 |
| 20260506113043 | 51 | 61 | 14.0 | 19.0 | 0.00 | 0.00 | 0.00 | 63 | 1015.0 |
| 20260506111541 | 51 | 51 | 12.0 | 18.0 | 0.00 | 0.00 | 0.00 | 64 | 1014.7 |
| 20260506110048 | 51 | 46 | 9.0 | 17.0 | 0.00 | 0.00 | 0.00 | 65 | 1014.8 |
| 20260506104544 | 50 | 55 | 12.0 | 16.0 | 0.00 | 0.00 | 0.00 | 66 | 1014.5 |
| 20260506103046 | 50 | 55 | 11.0 | 18.0 | 0.00 | 0.00 | 0.00 | 68 | 1014.6 |
| 20260506101548 | 50 | 49 | 10.0 | 16.0 | 0.00 | 0.00 | 0.00 | 70 | 1014.9 |
| 20260506100043 | 50 | 48 | 11.0 | 17.0 | 0.00 | 0.00 | 0.00 | 72 | 1014.6 |
| 20260506094547 | 50 | 55 | 13.0 | 18.0 | 0.00 | 0.00 | 0.00 | 74 | 1014.5 |
| 20260506093050 | 50 | 28 | 13.0 | 18.0 | 0.00 | 0.00 | 0.00 | 75 | 1014.3 |
| 20260506091545 | 50 | 43 | 11.0 | 16.0 | 0.00 | 0.00 | 0.00 | 76 | 1014.2 |
| 20260506090045 | 50 | 55 | 10.0 | 15.0 | 0.00 | 0.00 | 0.00 | 77 | 1014.2 |
| 20260506084548 | 49 | 50 | 9.0 | 15.0 | 0.00 | 0.00 | 0.00 | 79 | 1014.2 |
| 20260506083047 | 50 | 42 | 12.0 | 17.0 | 0.00 | 0.00 | 0.00 | 79 | 1013.9 |
| 20260506081550 | 50 | 48 | 10.0 | 14.0 | 0.00 | 0.00 | 0.00 | 78 | 1013.7 |
| 20260506073043 | 50 | 30 | 8.0 | 13.0 | 0.00 | 0.00 | 0.00 | 78 | 1013.0 |
| 20260506071553 | 51 | 52 | 9.0 | 12.0 | 0.00 | 0.00 | 0.00 | 77 | 1012.9 |
| 20260506070107 | 51 | 30 | 8.0 | 12.0 | 0.00 | 0.00 | 0.00 | 76 | 1013.2 |
| 20260506061548 | 51 | 68 | 10.0 | 15.0 | 0.00 | 0.00 | 0.00 | 77 | 1012.6 |
| 20260506050120 | 51 | 33 | 12.0 | 18.0 | 0.00 | 0.00 | 0.00 | 76 | 1012.8 |
| 20260506044557 | 51 | 43 | 11.0 | 16.0 | 0.00 | 0.00 | 0.00 | 76 | 1012.5 |
| 20260506043048 | 52 | 58 | 11.0 | 15.0 | 0.00 | 0.00 | 0.00 | 75 | 1012.3 |
| 20260506041554 | 52 | 48 | 9.0 | 14.0 | 0.00 | 0.00 | 0.00 | 75 | 1012.4 |
| 20260506040046 | 52 | 61 | 9.0 | 14.0 | 0.00 | 0.00 | 0.00 | 74 | 1012.1 |
| 20260506034542 | 52 | 67 | 11.0 | 15.0 | 0.00 | 0.00 | 0.00 | 74 | 1011.8 |